This is the latest recevied weather packets stored in our database for station/object WZ8H. If no packets are shown the sender has not sent any weather packets the latest 10 day(s).
| Time | Temp. | Humidity | Pressure | Rain* | Wind** | Luminosity | Snow |
|---|---|---|---|---|---|---|---|
| 1788136004 | 74° F | 89% | 763.4 mmHg | 0 in | - | 0 W/m² | - |
| 1788135702 | 74° F | 89% | 763.5 mmHg | 0 in | - | 0 W/m² | - |
| 1788135376 | 74° F | 88% | 763.4 mmHg | 0 in | - | 0 W/m² | - |
| 1788135051 | 74° F | 88% | 763.6 mmHg | 0 in | - | 0 W/m² | - |
| 1788134722 | 74° F | 87% | 763.6 mmHg | 0 in | - | 0 W/m² | - |
| 1788134420 | 74° F | 87% | 763.6 mmHg | 0 in | - | 0 W/m² | - |
| 1788134092 | 74° F | 87% | 763.6 mmHg | 0 in | - | 0 W/m² | - |
| 1788133790 | 74° F | 87% | 763.6 mmHg | 0 in | - | 0 W/m² | - |
| 1788133464 | 74° F | 87% | 763.6 mmHg | 0 in | - | 0 W/m² | - |
| 1788133136 | 74° F | 87% | 763.6 mmHg | 0 in | - | 5 W/m² | - |
| 1788132834 | 75° F | 87% | 763.6 mmHg | 0 in | - | 9 W/m² | - |
| 1788132531 | 75° F | 87% | 763.6 mmHg | 0 in | - | 14 W/m² | - |
| 1788132228 | 75° F | 87% | 763.6 mmHg | 0 in | - | 19 W/m² | - |
| 1788131900 | 75° F | 87% | 763.6 mmHg | 0 in | - | 21 W/m² | - |
| 1788131597 | 75° F | 87% | 763.6 mmHg | 0 in | - | 21 W/m² | - |
| 1788131275 | 75° F | 86% | 763.6 mmHg | 0 in | - | 21 W/m² | - |
| 1788130945 | 76° F | 86% | 763.6 mmHg | 0 in | - | 21 W/m² | - |
| 1788130618 | 76° F | 86% | 763.5 mmHg | 0 in | - | 21 W/m² | - |
| 1788130316 | 76° F | 85% | 763.5 mmHg | 0 in | - | 28 W/m² | - |
| 1788130008 | 76° F | 85% | 763.3 mmHg | 0 in | - | 32 W/m² | - |
| 1788129706 | 76° F | 84% | 763.3 mmHg | 0 in | - | 40 W/m² | - |
| 1788129379 | 76° F | 84% | 763.1 mmHg | 0 in | - | 49 W/m² | - |
| 1788129076 | 76° F | 83% | 763 mmHg | 0 in | - | 54 W/m² | - |
| 1788128748 | 77° F | 85% | 762.9 mmHg | 0 in | - | 88 W/m² | - |
| 1788128447 | 76° F | 85% | 762.9 mmHg | 0 in | - | 123 W/m² | - |
* Rain latest hour (hover to see other rain measurements)
** Current wind speed in m/s (hover to see current wind gust speed)